| time (UTC) | temp F | wind direction | speed MPH | gust MPH | rain 1hr in | rain 24hr in | rain mn in | humidity % | barometer mb |
| 20260901033055 | 85 | 181 | 0.0 | 1.0 | 0.00 | 0.20 | 0.20 | 83 | 1015.9 |
| 20260901031555 | 85 | 181 | 0.0 | 1.0 | 0.00 | 0.20 | 0.20 | 83 | 1015.7 |
| 20260901030055 | 85 | 181 | 0.0 | 1.0 | 0.00 | 0.20 | 0.20 | 83 | 1015.6 |
| 20260901024554 | 85 | 181 | 0.0 | 0.0 | 0.00 | 0.20 | 0.20 | 82 | 1015.4 |
| 20260901023053 | 85 | 181 | 0.0 | 3.0 | 0.00 | 0.20 | 0.20 | 82 | 1015.0 |
| 20260901021553 | 85 | 181 | 0.0 | 1.0 | 0.00 | 0.20 | 0.20 | 82 | 1015.0 |
| 20260901020055 | 86 | 181 | 1.0 | 4.0 | 0.00 | 0.20 | 0.20 | 83 | 1014.8 |
| 20260901014553 | 86 | 181 | 1.0 | 4.0 | 0.00 | 0.20 | 0.20 | 83 | 1014.7 |
| 20260901013102 | 86 | 181 | 0.0 | 4.0 | 0.00 | 0.20 | 0.20 | 82 | 1014.6 |
| 20260901011551 | 87 | 182 | 1.0 | 3.0 | 0.00 | 0.20 | 0.20 | 80 | 1014.5 |
| 20260901010052 | 87 | 182 | 1.0 | 5.0 | 0.00 | 0.20 | 0.20 | 80 | 1014.5 |
| 20260901004549 | 87 | 182 | 1.0 | 5.0 | 0.00 | 0.20 | 0.20 | 78 | 1014.6 |
| 20260901003048 | 87 | 182 | 3.0 | 5.0 | 0.00 | 0.20 | 0.20 | 79 | 1014.7 |
| 20260901001549 | 88 | 182 | 3.0 | 5.0 | 0.00 | 0.20 | 0.20 | 78 | 1014.6 |
| 20260901000047 | 88 | 182 | 2.0 | 5.0 | 0.00 | 0.20 | 0.20 | 76 | 1014.6 |
| 20260831234552 | 88 | 183 | 2.0 | 6.0 | 0.00 | 0.20 | 0.20 | 76 | 1014.6 |
| 20260831233053 | 88 | 183 | 2.0 | 7.0 | 0.00 | 0.20 | 0.20 | 77 | 1014.7 |
| 20260831231547 | 89 | 179 | 1.0 | 5.0 | 0.00 | 0.20 | 0.20 | 74 | 1014.7 |
| 20260831230044 | 89 | 186 | 1.0 | 4.0 | 0.00 | 0.20 | 0.20 | 72 | 1014.8 |
| 20260831224543 | 89 | 217 | 1.0 | 4.0 | 0.00 | 0.20 | 0.20 | 74 | 1014.8 |
| 20260831223052 | 88 | 219 | 0.0 | 2.0 | 0.00 | 0.20 | 0.20 | 77 | 1014.9 |
| 20260831221541 | 87 | 219 | 1.0 | 4.0 | 0.00 | 0.20 | 0.20 | 78 | 1014.8 |
| 20260831220045 | 87 | 222 | 1.0 | 2.0 | 0.00 | 0.20 | 0.20 | 80 | 1015.0 |
| 20260831214554 | 86 | 222 | 1.0 | 4.0 | 0.00 | 0.20 | 0.20 | 82 | 1015.2 |
| 20260831213038 | 85 | 222 | 1.0 | 3.0 | 0.00 | 0.20 | 0.20 | 83 | 1015.4 |
| 20260831211538 | 85 | 222 | 0.0 | 4.0 | 0.00 | 0.20 | 0.20 | 85 | 1015.6 |
| 20260831210038 | 84 | 222 | 2.0 | 6.0 | 0.19 | 0.20 | 0.20 | 85 | 1015.9 |
| 20260831204534 | 84 | 237 | 2.0 | 5.0 | 0.20 | 0.20 | 0.20 | 85 | 1015.9 |
| 20260831203034 | 84 | 262 | 1.0 | 3.0 | 0.20 | 0.20 | 0.20 | 86 | 1016.2 |
| 20260831201534 | 85 | 295 | 2.0 | 8.0 | 0.20 | 0.20 | 0.20 | 82 | 1016.1 |
| 20260831200033 | 92 | 304 | 2.0 | 9.0 | 0.00 | 0.00 | 0.00 | 75 | 1016.3 |
| 20260831194530 | 92 | 146 | 1.0 | 7.0 | 0.00 | 0.00 | 0.00 | 70 | 1016.3 |
| 20260831193049 | 94 | 5 | 1.0 | 6.0 | 0.00 | 0.00 | 0.00 | 66 | 1016.2 |
| 20260831191525 | 94 | 134 | 0.0 | 3.0 | 0.00 | 0.00 | 0.00 | 66 | 1016.5 |
| 20260831190024 | 94 | 355 | 1.0 | 5.0 | 0.00 | 0.00 | 0.00 | 65 | 1016.7 |
| 20260831184515 | 94 | 344 | 2.0 | 4.0 | 0.00 | 0.00 | 0.00 | 66 | 1016.7 |
| 20260831183013 | 93 | 342 | 1.0 | 3.0 | 0.00 | 0.00 | 0.00 | 69 | 1016.8 |
| 20260831181509 | 92 | 344 | 1.0 | 6.0 | 0.00 | 0.00 | 0.00 | 71 | 1017.0 |
| 20260831180010 | 91 | 158 | 1.0 | 6.0 | 0.00 | 0.00 | 0.00 | 72 | 1017.2 |
| 20260831174502 | 92 | 136 | 0.0 | 4.0 | 0.00 | 0.00 | 0.00 | 71 | 1017.2 |
| 20260831173103 | 91 | 277 | 0.0 | 4.0 | 0.00 | 0.00 | 0.00 | 75 | 1017.6 |
| 20260831171656 | 90 | 325 | 1.0 | 6.0 | 0.00 | 0.00 | 0.00 | 75 | 1017.7 |
| 20260831170052 | 90 | 153 | 0.0 | 4.0 | 0.00 | 0.00 | 0.00 | 75 | 1017.7 |
| 20260831164604 | 89 | 173 | 0.0 | 5.0 | 0.00 | 0.00 | 0.00 | 77 | 1017.9 |
| 20260831163042 | 88 | 173 | 2.0 | 4.0 | 0.00 | 0.00 | 0.00 | 83 | 1017.8 |
| 20260831161558 | 87 | 332 | 0.0 | 3.0 | 0.00 | 0.00 | 0.00 | 83 | 1017.8 |
| 20260831160049 | 87 | 337 | 0.0 | 3.0 | 0.00 | 0.00 | 0.00 | 82 | 1017.8 |
| 20260831154540 | 87 | 336 | 0.0 | 2.0 | 0.00 | 0.00 | 0.00 | 82 | 1017.7 |
| 20260831153041 | 87 | 355 | 1.0 | 4.0 | 0.00 | 0.00 | 0.00 | 83 | 1017.7 |
| 20260831151533 | 85 | 166 | 1.0 | 3.0 | 0.00 | 0.00 | 0.00 | 86 | 1017.6 |
| 20260831150029 | 84 | 164 | 0.0 | 3.0 | 0.00 | 0.00 | 0.00 | 88 | 1017.6 |
| 20260831144525 | 83 | 164 | 0.0 | 0.0 | 0.00 | 0.00 | 0.00 | 90 | 1017.6 |
| 20260831143023 | 82 | 167 | 0.0 | 2.0 | 0.00 | 0.00 | 0.00 | 90 | 1017.5 |
| 20260831141522 | 82 | 169 | 0.0 | 2.0 | 0.00 | 0.00 | 0.00 | 91 | 1017.6 |
| 20260831140020 | 81 | 169 | 0.0 | 2.0 | 0.00 | 0.00 | 0.00 | 92 | 1017.5 |
| 20260831134518 | 81 | 169 | 0.0 | 1.0 | 0.00 | 0.00 | 0.00 | 92 | 1017.3 |
| 20260831133013 | 80 | 169 | 0.0 | 1.0 | 0.00 | 0.00 | 0.00 | 92 | 1017.0 |
| 20260831131511 | 80 | 169 | 0.0 | 0.0 | 0.00 | 0.00 | 0.00 | 92 | 1016.9 |
| 20260831130010 | 80 | 169 | 0.0 | 1.0 | 0.00 | 0.00 | 0.00 | 92 | 1016.6 |
| 20260831124509 | 80 | 169 | 0.0 | 1.0 | 0.00 | 0.00 | 0.00 | 92 | 1016.4 |
| 20260831123010 | 80 | 169 | 0.0 | 1.0 | 0.00 | 0.00 | 0.00 | 92 | 1016.2 |
| 20260831121506 | 80 | 169 | 0.0 | 1.0 | 0.00 | 0.00 | 0.00 | 92 | 1016.1 |
| 20260831120009 | 80 | 169 | 0.0 | 2.0 | 0.00 | 0.00 | 0.00 | 92 | 1015.9 |
| 20260831114503 | 80 | 169 | 0.0 | 2.0 | 0.00 | 0.00 | 0.00 | 91 | 1015.9 |
| 20260831113002 | 81 | 169 | 0.0 | 0.0 | 0.00 | 0.00 | 0.00 | 91 | 1016.0 |
| 20260831111605 | 81 | 169 | 0.0 | 2.0 | 0.00 | 0.00 | 0.00 | 90 | 1015.8 |
| 20260831110059 | 81 | 169 | 0.0 | 1.0 | 0.00 | 0.00 | 0.00 | 90 | 1015.7 |
| 20260831104558 | 82 | 169 | 0.0 | 2.0 | 0.00 | 0.00 | 0.00 | 90 | 1015.7 |
| 20260831103057 | 82 | 169 | 0.0 | 1.0 | 0.00 | 0.00 | 0.00 | 90 | 1016.0 |
| 20260831101557 | 82 | 169 | 0.0 | 1.0 | 0.00 | 0.00 | 0.00 | 90 | 1015.8 |
| 20260831100109 | 82 | 169 | 0.0 | 2.0 | 0.00 | 0.00 | 0.00 | 90 | 1015.8 |
| 20260831094555 | 82 | 169 | 0.0 | 0.0 | 0.00 | 0.00 | 0.00 | 90 | 1015.9 |
| 20260831093059 | 82 | 169 | 0.0 | 2.0 | 0.00 | 0.00 | 0.00 | 90 | 1015.9 |
| 20260831091554 | 82 | 169 | 0.0 | 3.0 | 0.00 | 0.00 | 0.00 | 89 | 1015.7 |
| 20260831090106 | 82 | 169 | 0.0 | 3.0 | 0.00 | 0.00 | 0.00 | 89 | 1015.6 |
| 20260831084550 | 82 | 169 | 1.0 | 5.0 | 0.00 | 0.00 | 0.00 | 89 | 1015.7 |
| 20260831083104 | 82 | 169 | 0.0 | 2.0 | 0.00 | 0.00 | 0.00 | 89 | 1015.8 |
| 20260831081558 | 82 | 169 | 0.0 | 1.0 | 0.00 | 0.00 | 0.00 | 89 | 1016.0 |
| 20260831080121 | 82 | 169 | 0.0 | 2.0 | 0.00 | 0.00 | 0.00 | 89 | 1016.2 |
| 20260831074548 | 82 | 169 | 0.0 | 5.0 | 0.00 | 0.00 | 0.00 | 88 | 1016.1 |
| 20260831073047 | 82 | 169 | 2.0 | 6.0 | 0.00 | 0.00 | 0.00 | 88 | 1016.0 |
| 20260831071548 | 82 | 169 | 0.0 | 5.0 | 0.00 | 0.00 | 0.00 | 89 | 1016.1 |
| 20260831070045 | 82 | 168 | 3.0 | 6.0 | 0.00 | 0.00 | 0.00 | 88 | 1016.3 |
| 20260831064545 | 82 | 168 | 2.0 | 3.0 | 0.00 | 0.00 | 0.00 | 88 | 1016.2 |
| 20260831063051 | 83 | 168 | 1.0 | 5.0 | 0.00 | 0.00 | 0.00 | 88 | 1016.4 |
| 20260831061544 | 83 | 168 | 3.0 | 5.0 | 0.00 | 0.00 | 0.00 | 88 | 1016.5 |
| 20260831060044 | 83 | 168 | 0.0 | 2.0 | 0.00 | 0.00 | 0.00 | 88 | 1016.4 |
| 20260831054541 | 83 | 168 | 1.0 | 5.0 | 0.00 | 0.00 | 0.00 | 87 | 1016.5 |
| 20260831053106 | 83 | 168 | 2.0 | 6.0 | 0.00 | 0.00 | 0.00 | 87 | 1016.4 |
| 20260831051539 | 83 | 168 | 1.0 | 5.0 | 0.00 | 0.00 | 0.00 | 87 | 1016.3 |
| 20260831050036 | 83 | 168 | 2.0 | 5.0 | 0.00 | 0.00 | 0.00 | 86 | 1016.2 |
| 20260831044619 | 83 | 168 | 1.0 | 6.0 | 0.00 | 0.00 | 0.00 | 85 | 1016.3 |
| 20260831043036 | 83 | 168 | 3.0 | 7.0 | 0.00 | 0.00 | 0.00 | 84 | 1016.2 |
| 20260831041536 | 84 | 167 | 2.0 | 5.0 | 0.00 | 0.00 | 0.00 | 85 | 1016.2 |
| 20260831040034 | 84 | 167 | 2.0 | 5.0 | 0.00 | 0.00 | 0.00 | 84 | 1016.1 |